Simultaneous Nadir Overpasses (SNOs) Predictions

Prediction of SNOs between GOES-15 and NPP Satellite Orbit:

Table of predicted SNOs for the next 14.0 days since TLE Epoch: 2/1/2012
Index Date Time (GOES-15) GOES-15 Lat,Lon NPP Lat,Lon Distance(km) Time Diff (sec)
1 02/01/2012 22:08:06 0.01,-134.81 0.76,-131.36 392.87 80
2 02/03/2012 10:31:12 0.02,-134.89 0.40,-136.64 199.98 3
3 02/04/2012 10:11:11 0.01,-134.92 -0.59,-132.12 319.27 80
4 02/05/2012 22:35:52 -0.01,-134.96 -0.54,-137.45 283.68 80
5 02/06/2012 22:14:29 -0.01,-134.99 0.47,-132.93 234.82 80
6 02/08/2012 10:36:20 0.00,-135.05 0.74,-138.21 361.12 80
7 02/09/2012 10:20:20 0.00,-135.08 -0.33,-133.71 156.82 80
8 02/10/2012 22:42:21 -0.00,-135.11 -0.88,-139.04 448.06 80
9 02/11/2012 22:21:01
